Regional Weather Roundup
Issued by NWS

Home | Current Version | Previous Version | Graphics & Text | Print | Product List | Glossary On
Versions: 1 2 3 4 5 6 7 8 9 10 11 12 13 14 15 16 17 18 19 20 21 22 23 24 25 26 27 28 29 30 31 32 33 34 35 36 37 38 39 40 41 42 43 44 45 46 47 48 49 50
000
ASUS45 KTFX 011304
RWRMT
MONTANA REGIONAL WEATHER ROUNDUP
NATIONAL WEATHER SERVICE GREAT FALLS MT
700 AM MDT TUE SEP 01 2015

NOTE: "FAIR" INDICATES FEW OR NO CLOUDS BELOW 12000 FEET WITH NO
SIGNIFICANT WEATHER AND/OR OBSTRUCTIONS TO VISIBILITY.

MTZ001>007-043-011400-
WEST OF THE DIVIDE

CITY           SKY/WX    TMP DP  RH WIND       PRES   REMARKS
KALISPELL      PTSUNNY   45  41  86 W3        29.90R
MISSOULA       MOCLDY    44  40  85 CALM      29.96S
BUTTE          PTCLDY    39  35  86 CALM      30.03R
MULLAN PASS    PTCLDY    43  40  89 VRB5      29.99S
DEER LODGE       N/A     41  36  81 CALM      30.01S
EUREKA           N/A     61  41  48 SE9       29.87R
HAMILTON         N/A     54  39  58 S7        29.95R
LIBBY            N/A     54  43  66 CALM      29.88R
$$

MTZ008-052>055-011400-
SOUTHWEST MONTANA

CITY           SKY/WX    TMP DP  RH WIND       PRES   REMARKS
BOZEMAN        CLEAR     44  37  76 S6        29.97R
DILLON         PTCLDY    50  31  48 S13       30.00R
W YELLOWSTONE  CLEAR     27  25  93 CALM      30.13S
$$

MTZ009-010-012-014-046-048-049-054-011400-
EAST SLOPES AND CENTRAL MONTANA

CITY           SKY/WX    TMP DP  RH WIND       PRES   REMARKS
CUT BANK       MOCLDY    59  32  36 SW25G33   29.79S
GREAT FALLS    MOCLDY    61  40  45 S12       29.83S
MALMSTROM AFB  MOCLDY    59  41  50 SW14      29.84R
HELENA         CLEAR     50  40  68 NW3       29.94R
$$

MTZ011-013-016-021-045-047-050-051-011400-
NORTH CENTRAL MONTANA

CITY           SKY/WX    TMP DP  RH WIND       PRES   REMARKS
HAVRE          MOCLDY    50  41  71 SW8G32    29.75S
LEWISTOWN      CLEAR     47  38  71 SE7       29.89S
N BAR RANCH      N/A     50  37  62 W6        29.92R
CHINOOK          N/A     48  41  76 CALM      29.76S
FORT BENTON      N/A     63  39  42 SW8       29.80S
$$

MTZ017>020-022>027-061-062-011400-
NORTHEAST MONTANA

CITY           SKY/WX    TMP DP  RH WIND       PRES   REMARKS
GLASGOW        CLEAR     53  42  66 E10       29.79S
JORDAN           N/A     44  34  67 CALM      29.81S
SIDNEY         CLEAR     48  43  81 CALM      29.83S
WOLF POINT     CLEAR     46  41  82 CALM      29.82R
PLENTYWOOD       N/A     55  37  50 E5        29.82S
POPLAR           N/A     45  41  87 CALM      29.82S
$$

MTZ028>42-056>058-011400-
SOUTHCENTRAL AND SOUTHEAST MONTANA

CITY           SKY/WX    TMP DP  RH WIND       PRES   REMARKS
BAKER          CLEAR     59  55  87 SE8       29.88R
BILLINGS       PTCLDY    53  38  56 SW5       29.89R
LIVINGSTON     CLEAR     48  34  58 NW16G25   29.95R
MILES CITY     CLEAR     57  53  86 SE8       29.84R
FORSYTH          N/A     54  41  62 CALM      29.82S
$$

REGIONAL REPORTS...DAKOTAS

CITY           SKY/WX    TMP DP  RH WIND       PRES   REMARKS
WILLISTON      CLEAR     50  44  80 CALM      29.83S
MINOT          CLEAR     59  47  64 SW10      29.83S
DICKINSON      CLEAR     57  53  86 S8        29.86R
BISMARCK       CLEAR     54  51  90 NE5       29.89R
GRAND FORKS    MOSUNNY   56  52  86 CALM      29.86R
FARGO          PTSUNNY   58  56  93 SE3       29.89S
BUFFALO SD       N/A     56  54  93 CALM      29.82F
RAPID CITY     LGT RAIN  53  52  96 N3        29.88S
$$

REGIONAL REPORTS...WYOMING/IDAHO/WASHINGTON

CITY           SKY/WX    TMP DP  RH WIND       PRES   REMARKS
GILLETTE       CLEAR     61  43  51 SW8       29.94S
SHERIDAN       PTCLDY    49  41  74 SW6       29.92S
BUFFALO WY     PTCLDY    60  33  36 SW9       29.98S
CODY           PTCLDY    57  27  30 NW5       29.98S
YELLOWSTONE LA   N/A     32  29  88 NW3       30.21S
IDAHO FALLS    CLEAR     42  37  82 N5        30.01F
SALMON         CLEAR     43  36  75 CALM      30.00R
BOISE          CLEAR     59  37  44 SE7       29.90S
SPOKANE        PTCLDY    51  45  79 S10       29.90R
$$

REGIONAL REPORTS...ALBERTA

CITY           SKY/WX    TMP DP  RH WIND       PRES   REMARKS
$$

REGIONAL REPORTS...SASKATCHEWAN

CITY           SKY/WX    TMP DP  RH WIND       PRES   REMARKS
$$


USA.gov is the U.S. government's official web portal to all federal, state and local government web resources and services.